Regional Weather Roundup
Issued by NWS Little Rock, AR

Home | Current Version | Previous Version | Graphics & Text | Print | Product List | Glossary On
Versions: 1 2 3 4 5 6 7 8 9 10 11 12 13 14 15 16 17 18 19 20 21 22 23 24 25 26 27 28 29 30 31 32 33 34 35 36 37 38 39 40 41 42 43 44 45 46 47 48 49 50
000
ASUS44 KLZK 011105
RWRLZK

WEATHER ROUNDUP FOR ARKANSAS
NATIONAL WEATHER SERVICE LITTLE ROCK AR
600 AM CDT TUE SEP 01 2015

NOTE: "FAIR" INDICATES FEW OR NO CLOUDS BELOW 12,000 FEET WITH NO
SIGNIFICANT WEATHER AND/OR OBSTRUCTIONS TO VISIBILITY.

ARZ001-003-010-029-011200-
NORTHWEST ARKANSAS

CITY           SKY/WX    TMP DP  RH WIND       PRES   REMARKS
FAYETTEVILLE   CLEAR     64  64 100 S6        30.10R FOG
FORT SMITH     CLEAR     71  67  87 NE5       30.05S
BENTONVILLE    CLEAR     70  63  78 CALM      30.09S
ROGERS         CLEAR     70  66  87 SE8       30.10S
SILOAM SPGS    CLEAR     68  61  77 E3        30.07R
HIGHFILL       CLEAR     69  66  90 CALM      30.08S
SPRINGDALE     CLEAR     70  66  88 SE3       30.11
$$

ARZ004-005-016-011200-
NORTH CENTRAL ARKANSAS

CITY           SKY/WX    TMP DP  RH WIND       PRES   REMARKS
BATESVILLE     CLEAR     70  66  88 E3        30.09R
FLIPPIN        CLEAR     66  63  88 CALM      30.08R
MTN HOME       CLEAR     69  67  93 CALM      30.09S FOG
$$

ARZ040-041-011200-
WEST CENTRAL ARKANSAS

CITY           SKY/WX    TMP DP  RH WIND       PRES   REMARKS
MENA           CLEAR     64  64 100 CALM      30.09R
MOUNT IDA      PTCLDY    66  64  93 CALM      30.06R FOG
$$

ARZ009-017-025-026-028-011200-
NORTHEAST ARKANSAS

CITY           SKY/WX    TMP DP  RH WIND       PRES   REMARKS
JONESBORO      PTCLDY    68  68 100 CALM      30.09R
NEWPORT        PTCLDY    71  69  93 NE5       30.09S
WALNUT RIDGE   CLEAR     70  64  83 CALM      30.09S
BLYTHEVILLE    CLEAR     70  68  93 CALM      30.10R
$$

ARZ022-023-033-042-044-011200-
CENTRAL ARKANSAS

CITY           SKY/WX    TMP DP  RH WIND       PRES   REMARKS
LITTLE ROCK    MOCLDY    72  69  90 CALM      30.06R
N LITTLE ROCK    N/A     73  71  91 SE3       30.06R
JACKSONVILLE   PTCLDY    69  67  95 CALM      30.06R
SEARCY         PTCLDY    71  69  93 NE3       30.08S
HOT SPRINGS    PTCLDY    70  67  90 CALM      30.07R FOG
RUSSELLVILLE   CLEAR     68  67  96 CALM      30.06R FOG
$$

ARZ036-011200-
EAST ARKANSAS

CITY           SKY/WX    TMP DP  RH WIND       PRES   REMARKS
WEST MEMPHIS   MOCLDY    71  70  96 CALM      30.08R
$$

ARZ050-053-066-070-073-011200-
SOUTHWEST ARKANSAS

CITY           SKY/WX    TMP DP  RH WIND       PRES   REMARKS
ARKADELPHIA    FAIR      67  67 100 CALM      30.06S
CAMDEN         PTCLDY    68  64  88 CALM      30.06R
TEXARKANA      CLEAR     68  66  93 CALM      30.06R
EL DORADO      CLOUDY    70  64  81 CALM      30.06S
DE QUEEN       FOG       64  64 100 NE3       30.04S VSB 1/2
$$

ARZ056-057-069-011200-
SOUTHEAST ARKANSAS

CITY           SKY/WX    TMP DP  RH WIND       PRES   REMARKS
PINE BLUFF     CLOUDY    70  68  93 CALM      30.06R
STUTTGART      PTCLDY    73  66  78 SE6       30.06S
MONTICELLO     CLOUDY    72  69  90 CALM      30.06S

$$




USA.gov is the U.S. government's official web portal to all federal, state and local government web resources and services.